Regional Weather Roundup
Issued by NWS Austin/San Antonio, TX

Current Version | Previous Version | Graphics & Text | Print | Product List | Glossary On
Versions: 1 2 3 4 5 6 7 8 9 10 11 12 13 14 15 16 17 18 19 20 21 22 23 24 25 26 27 28 29 30 31 32 33 34 35 36 37 38 39 40 41 42 43 44 45 46 47 48 49 50
000
ASUS44 KEWX 232210
RWREWX
SOUTH TEXAS REGIONAL WEATHER ROUNDUP
NATIONAL WEATHER SERVICE AUSTIN/SAN ANTONIO TX
500 PM CDT FRI OCT 23 2020

NOTE: "FAIR" INDICATED FEW OR NO CLOUDS BELOW 12,000 FEET WITH NO
SIGNIFICANT WEATHER AND/OR OBSTRUCTIONS TO VISIBILITY.

* - THESE STATIONS ARE NOT NWS OR FAA STATIONS...AND ARE NOT SUBJECT
    TO NWS AND FAA QUALITY CONTROL.

TXZ171-172-183>190-232300-
TEXAS HILL COUNTRY AND EDWARDS PLATEAU

CITY           SKY/WX    TMP DP  RH WIND       PRES   REMARKS
JUNCTION       CLOUDY    57  46  66 N14G22    30.17R
*LLANO         CLOUDY    52  48  87 NW14G24   30.15R
BURNET         CLOUDY    54  47  77 NW16G26   30.15R
*HORSESHOE BAY DRIZZLE   55  52  88 N14G21    30.14R
*LAGO VISTA    CLOUDY    55  51  87 N16G26    30.11R
*KERRVILLE     CLOUDY    59  54  81 N13       30.10R
*FREDERICKSBRG CLOUDY    55  50  83 N17       30.12R
*ROCKSPRINGS   CLOUDY    64  52  63 N14G26    30.14R
*BOERNE        CLOUDY    70  61  73 N15G21    30.05R
*CASTROVILLE   PTSUNNY   87  65  47 NE15G22   29.98R
HONDO          CLOUDY    85  66  53 NE20      29.97R
*UVALDE        MOSUNNY   87  66  49 E7        29.97F
DEL RIO        MOSUNNY   77  54  44 NW17G29   30.03R
*LAUGHLIN AFB  CLOUDY    80  57  44 N18G26    30.01R
*SPOFFORD      SUNNY    N/A N/A N/A W3        29.91F
*EAGLE PASS    NOT AVBL
CARRIZO SPRGS  MOSUNNY   90  66  45 E6        29.92S HX  92
*FAITH RANCH   MOSUNNY   91  68  46 E13       29.94R HX  95
$$

TXZ173-191>194-202-209-217>225-228-232300-
CENTRAL AND SOUTH CENTRAL TEXAS

CITY           SKY/WX    TMP DP  RH WIND       PRES   REMARKS
GEORGETOWN     CLOUDY    55  50  83 N21G26    30.12R
*TAYLOR        CLOUDY    57  52  82 N21G29    30.09R
AUSTIN/BERGSTM CLOUDY    67  58  72 N22G30    30.05R
AUSTIN/MABRY   CLOUDY    63  56  78 N10G23    30.08R
*PFLUGERVILLE  CLOUDY    59  54  82 N20G32    30.08R HAZE
SAN MARCOS     PTSUNNY   76  65  68 N21G26    30.02R
NEW BRAUNFELS  CLOUDY    81  64  56 NE21G29   29.98R
*RANDOLPH AFB  CLOUDY    77  65  65 N16       29.98R
*SEGUIN        CLOUDY    81  66  59 NE17G24   30.01R
SAN ANTONIO    PTSUNNY   78  64  61 N18       30.00R
STINSON FIELD  CLOUDY    86  65  49 NE6       29.93S
*KELLY FIELD   PTSUNNY   81  67  61 N18G26    29.96R
*PLEASANTON    CLOUDY    91  66  44 NE3       29.94S HX  93
*KENEDY        SUNNY     91  65  42 E5        29.93S HX  93
*LA GRANGE     DRIZZLE   83  67  58 N10G17    29.96R
*GIDDINGS      MOSUNNY   70  60  71 N10G24    30.04R
*GONZALES      CLOUDY    85  68  56 NE6       29.94S
$$

TXZ163>164-176>182-195>201-210>213-226-227-235-232300-
SOUTHEAST TEXAS

CITY           SKY/WX    TMP DP  RH WIND       PRES   REMARKS
COLLEGE STN    CLOUDY    60  55  83 N22G28    30.05R
*BRYAN         CLOUDY    57  54  88 N17G26    30.08R
*CALDWELL      CLOUDY    57  56  95 N22G30    30.06R
*CROCKETT      NOT AVBL
*BRENHAM       CLOUDY    65  60  85 N18G28    30.04R
HUNTSVILLE     CLOUDY    64  59  83 N13G22    30.04R
CONROE         PTSUNNY   72  65  78 N15G28    29.99R
HOUSTON BUSH   PTSUNNY   79  63  57 NE6       29.95R
HOUSTON HOBBY  MOSUNNY   83  62  49 NE8       29.93R
*HOUSTON SW AP MOSUNNY   80  65  60 NE7       29.95S
PEARLAND       MOSUNNY   82  62  50 NE9       29.95S
HOUSTON HOOKS  MOSUNNY   77  65  66 N6        29.97R
ELLINGTON FLD  NOT AVBL
SUGAR LAND     NOT AVBL
*HOUSTON EXEC  MOSUNNY   81  66  61 N8        29.96R
*CLEVELAND MUN MOSUNNY   71  68  90 N6        29.99R
*WHARTON       SUNNY     82  64  53 N9        29.94R HAZE
*COLUMBUS      NOT AVBL
*EAGLE LAKE    MOSUNNY   83  65  54 NE8       29.94S
$$

TXZ214>216-236>238-232300-
THE UPPER TEXAS COAST

CITY           SKY/WX    TMP DP  RH WIND       PRES   REMARKS
*ORANGE        LGT RAIN  72  69  91 N3        29.95F
PORT ARTHUR    CLOUDY    70  69  97 NE6       29.89F
GALVESTON      PTSUNNY   75  67  76 NE13      29.94F
ANGLETON       PTSUNNY   77  66  68 NE8       29.95R THUNDER
*BAY CITY      PTSUNNY   84  69  59 NE13      29.93R
PALACIOS       MOSUNNY   84  76  76 S9        29.89F HX  93
$$

TXZ229>234-239>247-232300-
TEXAS COASTAL BEND AND RIO GRANDE PLAINS

CITY           SKY/WX    TMP DP  RH WIND       PRES   REMARKS
VICTORIA       MOSUNNY   92  67  43 N7        29.91S HX  95
*BEEVILLE      NOT AVBL
ROCKPORT       SUNNY     85  75  72 SE10      29.90S HX  93
*PORT ARANSAS  SUNNY     83  74  74 E9        29.92F HX  90
*PORT LAVACA   SUNNY     91  70  50 E7        29.91R HX  96
*INGLESIDE     SUNNY     88  77  70 SE9       29.90S HX 100
CORPUS CHRISTI SUNNY     88  73  61 E10       29.90F HX  95
CORPUS NAS     MOSUNNY   86  74  67 E13       29.90F HX  94
*ROBSTOWN      SUNNY     90  70  52 E8        29.90S HX  95
ALICE          SUNNY     93  67  42 NE5       29.90S HX  96
KINGSVILLE NAS MOSUNNY   89  73  59 E9        29.89S HX  97
COTULLA        MOSUNNY   93  66  40 E8        29.92S HX  96
LAREDO         MOSUNNY   92  69  47 E13G20    29.89F HX  97
$$

TXZ248>255-232300-
DEEP SOUTH TEXAS

CITY           SKY/WX    TMP DP  RH WIND       PRES   REMARKS
BROWNSVILLE    MOSUNNY   89  74  60 E13       29.87S HX  98
PORT ISABEL    SUNNY     84  75  74 E15       29.88S HX  92
HARLINGEN      MOSUNNY   89  76  65 E15       29.88R HX 100
*HEBBRONVILLE  SUNNY     89  63  41 E9        29.93S HX  90
MCALLEN        MOSUNNY   94  70  45 E7        29.87R HX 100
*WESLACO       CLOUDY    92  71  51 E7        29.86R HX  98
FALFURRIAS     MOSUNNY   89  66  47 NE6       29.89S HX  91
EDINBURG       PTSUNNY   94  63  35 NE9       29.87S HX  95
*ZAPATA        NOT AVBL
$$

TXZ213>215-236>238-242>244-246-247-251-254-255-232300-
CMAN STATIONS

STATION/POSITION TIME  TEMP    WIND        PRES    WAVE
                       AIR SEA DIR/SP/G            HT/PER
                 (UTC) (F)     (DEG/KT/KT) (MB)    (FT/S)
NORTH JETTY/GLS  2124   78 81   50/ 16/ 19 1012.8
EAGLE POINT      2124   73 82   80/ 15/ 21 1013.2
MORGANS POINT    2124   73 81   30/  5/  8 1014.2
PORT O`CONNOR    2124   80 86  140/  9/ 11 1012.5
MALAQUITE BEACH  2130   84      70/  9/ 10   N/A
BAFFIN BAY       2130   81 87   70/ 11/ 12 1012.4
PORT ISABEL      2130   82 84   90/ 11/ 14 1013.8
$$



USA.gov is the U.S. government's official web portal to all federal, state and local government web resources and services.